This is the latest recevied weather packets stored in our database for station/object KE1THD. If no packets are shown the sender has not sent any weather packets the latest 1 day(s).
| Time | Temp. | Humidity | Pressure | Rain* | Wind** | Luminosity | Snow |
|---|---|---|---|---|---|---|---|
| 1778011452 | 12.78° C | 38% | 1010.4 hPa | 0 mm | 0.89 m/s, 229° | 223 W/m² | - |
| 1778011148 | 12.78° C | 37% | 1010.7 hPa | 0 mm | 2.68 m/s, 327° | 239 W/m² | - |
| 1778010845 | 12.78° C | 37% | 1010.5 hPa | 0 mm | 4.47 m/s, 0° | 267 W/m² | - |
| 1778010542 | 12.78° C | 37% | 1010.4 hPa | 0 mm | 2.68 m/s, 327° | 260 W/m² | - |
| 1778010235 | 12.78° C | 37% | 1010.6 hPa | 0 mm | 1.34 m/s, 55° | 246 W/m² | - |
| 1778009935 | 12.78° C | 37% | 1010.5 hPa | 0 mm | 3.13 m/s, 10° | 252 W/m² | - |
| 1778009633 | 12.78° C | 36% | 1010.6 hPa | 0 mm | 3.13 m/s, 22° | 266 W/m² | - |
| 1778009330 | 12.78° C | 36% | 1010.8 hPa | 0 mm | 1.79 m/s, 328° | 242 W/m² | - |
| 1778009028 | 12.78° C | 38% | 1010.7 hPa | 0 mm | 1.79 m/s, 332° | 231 W/m² | - |
| 1778008725 | 12.78° C | 37% | 1010.8 hPa | 0 mm | 2.24 m/s, 298° | 220 W/m² | - |
| 1778008424 | 12.78° C | 36% | 1011.1 hPa | 0 mm | 3.58 m/s, 326° | 216 W/m² | - |
| 1778008120 | 12.78° C | 36% | 1010.9 hPa | 0 mm | 2.68 m/s, 354° | 220 W/m² | - |
| 1778007816 | 12.78° C | 36% | 1011 hPa | 0 mm | 2.68 m/s, 342° | 227 W/m² | - |
| 1778007512 | 12.78° C | 37% | 1010.8 hPa | 0 mm | 1.34 m/s, 327° | 228 W/m² | - |
| 1778007208 | 12.78° C | 37% | 1011.1 hPa | 0 mm | 1.34 m/s, 271° | 237 W/m² | - |
| 1778006904 | 12.78° C | 35% | 1010.7 hPa | 0 mm | 4.02 m/s, 212° | 222 W/m² | - |
| 1778006602 | 12.78° C | 35% | 1010.8 hPa | 0 mm | 2.24 m/s, 317° | 220 W/m² | - |
| 1778006299 | 12.78° C | 37% | 1010.9 hPa | 0 mm | 0.45 m/s, 204° | 235 W/m² | - |
| 1778005996 | 12.78° C | 37% | 1011.2 hPa | 0 mm | 3.13 m/s, 297° | 278 W/m² | - |
| 1778005692 | 12.78° C | 37% | 1011 hPa | 0 mm | 3.13 m/s, 336° | 314 W/m² | - |
| 1778005389 | 12.78° C | 38% | 1010.9 hPa | 0 mm | 1.34 m/s, 267° | 295 W/m² | - |
| 1778005086 | 12.78° C | 37% | 1011.1 hPa | 0 mm | 4.47 m/s, 347° | 265 W/m² | - |
| 1778004783 | 12.78° C | 37% | 1011.1 hPa | 0 mm | 2.68 m/s, 325° | 260 W/m² | - |
| 1778004480 | 12.78° C | 38% | 1011 hPa | 0 mm | 2.68 m/s, 304° | 273 W/m² | - |
| 1778004176 | 12.78° C | 38% | 1011.1 hPa | 0 mm | 2.68 m/s, 330° | 282 W/m² | - |
* Rain latest hour (hover to see other rain measurements)
** Current wind speed in m/s (hover to see current wind gust speed)